AO-07 1 07530U 74089B 20219.44701373 -.00000036 00000-0 58084-4 0 9995 2 07530 101.8033 188.9163 0011776 268.5387 207.6898 12.53644475092259 UO-11 1 14781U 84021B 20219.48282606 .00000076 00000-0 15354-4 0 9991 2 14781 97.5897 228.9676 0009508 44.5499 315.6478 14.83182327960249 LO-19 1 20442U 90005G 20219.43762820 -.00000020 00000-0 89492-5 0 9992 2 20442 098.6946 166.8639 0012065 013.4911 346.6593 14.32957853595718 HUBBLE 1 20580U 90037B 20219.47358816 .00000412 00000-0 14069-4 0 9991 2 20580 028.4705 348.8229 0002493 271.0258 146.8507 15.09413968463530 MET-2/21 1 22782U 93055A 20219.49640076 .00000015 00000-0 -32439-6 0 9997 2 22782 82.5491 193.8702 0023878 94.4543 23.5098 13.83826818360238 AO-27 1 22825U 93061C 20219.74775473 -.00000020 00000-0 10230-4 0 9999 2 22825 98.9241 223.4678 0007583 225.7437 134.3123 14.30089924401270 IO-26 1 22826U 93061D 20219.44258523 -.00000013 00000-0 13042-4 0 9995 2 22826 098.9182 223.0963 0008270 213.9670 146.0983 14.30426053401193 FO-29 1 24278U 96046B 20219.52292526 -.00000025 00000-0 13413-4 0 9999 2 24278 098.5876 322.8095 0349351 245.1330 111.3115 13.53098756183653 NOAA-15 1 25338U 98030A 20219.46330110 .00000045 00000-0 37583-4 0 9992 2 25338 098.7145 244.2533 0011508 115.1374 245.1001 14.25983660156107 GO-32 1 25397U 98043D 20219.76563131 -.00000015 00000-0 12716-4 0 9994 2 25397 98.7298 160.8865 0000211 320.9220 39.1943 14.23688360146930 ISS 1 25544U 98067A 20220.00969907 .00001298 00000-0 31530-4 0 9992 2 25544 51.6459 96.9302 0000938 12.5592 183.5974 15.49150397239897 NO-44 1 26931U 01043C 20219.50623310 -.00000042 00000-0 15677-4 0 9990 2 26931 67.0522 13.2269 0006007 274.7938 85.2477 14.30583798984306 SO-50 1 27607U 02058C 20219.45041129 -.00000060 00000-0 11844-4 0 9996 2 27607 064.5536 221.5060 0041686 161.8225 198.4379 14.75650015948106 CO-55 1 27844U 03031E 20219.80362507 .00000026 00000-0 31198-4 0 9991 2 27844 98.6816 226.7778 0008612 270.1398 89.8793 14.22249719887290 CO-57 1 27848U 03031J 20219.49306874 .00000016 00000-0 27346-4 0 9994 2 27848 098.6883 227.0330 0008563 285.5127 074.5105 14.21835237887058 RS-22 1 27939U 03042A 20219.65941344 .00000056 00000-0 18733-4 0 9996 2 27939 98.0981 353.8302 0012774 188.4766 171.6217 14.66875690901379 NOAA-18 1 28654U 05018A 20219.66805898 .00000082 00000-0 68839-4 0 9991 2 28654 99.0402 276.5570 0015352 90.5075 269.7856 14.12530217784092 CO-58 1 28895U 05043F 20219.38310932 .00000086 00000-0 25424-4 0 9992 2 28895 98.0165 354.3582 0018040 121.3054 238.9917 14.63788037788146 Falconsat-3 1 30776U 07006E 20219.66906914 .00002600 00000-0 69235-4 0 9998 2 30776 35.4350 318.6962 0003423 279.0690 80.9650 15.38000186744572 CO-65 1 32785U 08021C 20219.48080664 .00000153 00000-0 22053-4 0 9991 2 32785 097.5755 205.3041 0012273 334.2549 025.8056 14.88496220665316 AAUSAT2 1 32788U 08021F 20219.44728784 .00000126 00000-0 16472-4 0 9990 2 32788 097.4918 221.7255 0010090 245.0414 114.9759 14.95109933666785 DO-64 1 32789U 08021G 20219.37329225 .00000912 00000-0 63371-4 0 9993 2 32789 097.4151 260.4230 0013234 138.9901 221.2325 15.07835096669337 CO-66 1 32791U 08021J 20219.46225032 .00000392 00000-0 44908-4 0 9994 2 32791 097.5426 211.4097 0011899 300.0337 059.9701 14.91083987665834 RS-30 1 32953U 08025A 20219.86000315 .00000037 00000-0 19437-3 0 9991 2 32953 82.5007 246.5547 0018086 305.9486 53.9922 12.43097492553898 PRISM 1 33493U 09002B 20219.78340557 .00000791 00000-0 74105-4 0 9994 2 33493 98.1456 162.1705 0013583 246.4775 113.5019 14.97087963627249 NOAA-19 1 33591U 09005A 20219.53372601 .00000039 00000-0 46849-4 0 9993 2 33591 099.1956 226.1844 0013030 297.6558 062.3290 14.12425540592206 TISAT-1 1 36799U 10035E 20219.48826578 .00000435 00000-0 49669-4 0 9995 2 36799 098.1983 031.6947 0012674 160.1793 199.9919 14.91394673546381 JUGNU 1 37839U 11058B 20219.50604421 .00000308 00000-0 22221-4 0 9995 2 37839 019.9624 339.2289 0018757 220.1080 215.0269 14.12684682455876 SRMSAT 1 37841U 11058D 20219.65174536 .00000320 00000-0 30751-4 0 9994 2 37841 19.9734 43.7096 0011893 75.3843 337.6895 14.10665266455359 AO-71 1 37854U 11061E 20219.54667461 .00000838 00000-0 49982-4 0 9994 2 37854 101.7039 336.6475 0157843 272.7551 085.5605 15.07370181479025 HRBE 1 37855U 11061F 20219.52486300 .00000821 00000-0 48389-4 0 9996 2 37855 101.7167 333.7480 0170462 286.2816 71.9706 15.06396736479213 HORYU-2 1 38340U 12025D 20219.51591303 .00000132 00000-0 27195-4 0 9993 2 38340 98.2771 274.2553 0010334 237.4342 122.5869 14.75874702442343 RS-40 1 38735U 12041C 20219.45120821 -.00000007 00000-0 -12165-3 0 9998 2 38735 082.4784 329.4870 0017660 055.2432 305.0295 12.42580108364069 BEESAT-3 1 39135U 13015F 20219.17212445 .00000662 00000-0 41596-4 0 9994 2 39135 64.8668 140.8354 0035050 235.0330 124.7504 15.18261113403150 BEESAT-2 1 39136U 13015G 20219.23978980 .00000899 00000-0 53862-4 0 9996 2 39136 064.8720 145.7597 0033371 274.4017 085.3296 15.17655183402675 ZACUBE-1 1 39417U 13066B 20219.48747903 .00000167 00000-0 27066-4 0 9995 2 39417 097.5663 214.7306 0060320 113.2041 247.5541 14.81299041362444 TRITON-1 1 39427U 13066M 20219.43953969 .00000140 00000-0 30590-4 0 9999 2 39427 97.7293 177.6032 0112128 278.3900 80.4608 14.68028376359181 GOMX-1 1 39430U 13066Q 20219.85556591 .00000171 00000-0 39759-4 0 9999 2 39430 97.7924 155.3423 0151826 26.2684 334.6136 14.59419552357155 LO-74 1 39440U 13066AA 20219.45158282 .00000132 00000-0 25222-4 0 9998 2 39440 097.6340 199.2001 0080058 176.7741 183.4003 14.76034421359959 AO-73 1 39444U 13066AE 20219.45638486 .00000229 00000-0 34226-4 0 9992 2 39444 097.5602 216.9589 0059491 105.4483 255.3313 14.82156939360771 SPROUT 1 39770U 14029E 20219.72323878 .00000247 00000-0 33068-4 0 9993 2 39770 97.9013 325.7987 0009027 153.8878 206.2822 14.87805782336538 DUCHIFAT-1 1 40021U 14033M 20219.48049870 .00000363 00000-0 42555-4 0 9999 2 40021 097.9427 151.0266 0014101 118.6894 241.5743 14.90942069333348 NANOSATCBR1 1 40024U 14033Q 20219.46421767 .00000253 00000-0 32042-4 0 9997 2 40024 097.9268 147.2279 0013348 122.9114 237.3389 14.90106637332688 DTUSAT-2 1 40030U 14033W 20219.76035478 .00000166 00000-0 23742-4 0 9997 2 40030 97.9014 141.4207 0013002 125.4172 234.8261 14.88739367333007 EO-80 1 40032U 14033Y 20219.44488365 .00000189 00000-0 26233-4 0 9994 2 40032 097.9022 141.1086 0012916 127.0572 233.1828 14.88689180332428 ANTELSAT 1 40034U 14033AA 20219.49074743 .00000154 00000-0 30119-4 0 9992 2 40034 097.7095 072.7739 0058058 195.6944 164.2468 14.74279916329251 VELOX-1 1 40057U 14034E 20219.80539345 .00000165 00000-0 30574-4 0 9994 2 40057 98.2858 358.1685 0010415 351.8968 8.2090 14.77901347329078 DAURIA DX 1 1 40071U 14037C 20219.70308525 .00000070 00000-0 16503-4 0 9997 2 40071 98.4619 40.8876 0008161 345.1166 14.9805 14.81380433328696 HODOYOSHI-1 1 40299U 14070B 20219.75013010 .00000544 00000-0 25227-4 0 9992 2 40299 97.3210 295.3154 0013532 26.1465 72.2092 15.24122422319476 CHUBUSAT-1 1 40300U 14070C 20219.63676181 .00000715 00000-0 33581-4 0 9998 2 40300 97.2846 287.2923 0020866 39.4643 127.0262 15.22569767319147 QSAT-EOS 1 40301U 14070D 20219.85036316 .00001659 00000-0 64633-4 0 9993 2 40301 97.2908 293.1407 0025451 14.0702 92.7930 15.27088386319621 FIREBIRD FU3 1 40377U 15003B 20219.48650154 .00002709 00000-0 10590-3 0 9993 2 40377 99.0916 289.9251 0124119 146.6217 214.2917 15.20218209304911 FIREBIRD FU4 1 40378U 15003C 20219.66767988 .00002741 00000-0 10697-3 0 9992 2 40378 99.0917 290.2452 0124290 145.8898 215.0399 15.20237725304947 GRIFEX 1 40379U 15003D 20219.62747624 .00001518 00000-0 66811-4 0 9995 2 40379 99.0986 281.8223 0132821 171.8992 188.4425 15.16516754304455 NO-84 1 40654U 15025D 20218.17134819 +.00009493 +00000-0 +11169-3 0 9995 2 40654 54.9856 75.9243 0111464 316.0104 43.2098 15.55038150176609 DEORBITSAIL 1 40719U 15032E 20219.49697001 .00000318 00000-0 52114-4 0 9991 2 40719 097.8639 106.8919 0017686 049.1990 311.0751 14.77038928273480 NUDT-PHONESAT 1 40900U 15049B 20219.87283258 .00002185 00000-0 92263-4 0 9991 2 40900 97.4293 230.3909 0012576 158.3071 285.3172 15.24276826270876 XW-2A 1 40903U 15049E 20219.76326959 .00002221 00000-0 51756-4 0 9991 2 40903 97.2838 268.7442 0014844 81.2796 28.6083 15.43253434274231 XW-2C 1 40906U 15049H 20219.86799368 .00000672 00000-0 38269-4 0 9995 2 40906 97.4774 220.4760 0014155 192.7133 251.9420 15.16126340269898 XW-2D 1 40907U 15049J 20219.85398170 .00000748 00000-0 41934-4 0 9998 2 40907 97.4756 220.1760 0013420 189.5783 255.6312 15.16366246269910 LILACSAT-2 1 40908U 15049K 20219.73926950 .00000488 00000-0 30405-4 0 9991 2 40908 97.4910 218.3466 0015044 202.2883 262.3665 15.14074674269604 XW-2E 1 40909U 15049L 20219.82996735 .00000910 00000-0 47311-4 0 9994 2 40909 97.4633 223.7146 0013272 179.3174 303.5669 15.18515952270179 XW-2F 1 40910U 15049M 20219.79004476 .00001074 00000-0 56003-4 0 9994 2 40910 97.4674 222.7644 0014587 179.0558 266.9775 15.18025933269972 XW-2B 1 40911U 15049N 20219.84015616 .00000501 00000-0 29259-4 0 9996 2 40911 97.4767 220.8609 0013409 190.2063 253.6099 15.16289259269809 DCBB 1 40912U 15049P 20219.77089726 .00001027 00000-0 50171-4 0 9993 2 40912 97.4477 226.9424 0015227 156.6875 289.5946 15.20428846270361 TW-1C 1 40926U 15051B 20219.70455707 .00029143 00000-0 26682-3 0 9998 2 40926 97.0780 271.8593 0004253 237.0580 220.3048 15.67743818274897 TW-1A 1 40928U 15051D 20219.79960759 .00003324 00000-0 77566-4 0 9998 2 40928 97.1067 246.4021 0010692 14.9683 71.0985 15.42854289273137 IO-86 1 40931U 15052B 20219.73530903 .00000680 00000-0 55120-5 0 9996 2 40931 6.0007 336.8107 0013513 270.5883 89.2953 14.76639324262704 LQSat 1 40958U 15057A 20219.17821648 .00000004 00000-0 81670-5 0 9996 2 40958 97.8494 280.9245 0017898 354.9769 5.1256 14.73126344259825 ATHENOXAT-1 1 41168U 15077C 20219.75367850 .00001882 00000-0 62667-4 0 9995 2 41168 14.9891 52.3366 0011177 109.0332 251.1200 15.14462798256982 ChubuSat-2 1 41338U 16012B 20219.73284460 .00000288 00000-0 15601-4 0 9992 2 41338 31.0044 26.8136 0013910 255.1703 104.7391 15.00312725245299 ChubuSat-3 1 41339U 16012C 20219.72200664 .00000271 00000-0 14231-4 0 9996 2 41339 31.0141 24.4585 0013655 264.2532 95.6571 15.00475622245291 Horyu-4 1 41340U 16012D 20219.55628951 .00000417 00000-0 24762-4 0 9994 2 41340 031.0063 012.7085 0014114 286.1895 073.7187 15.01529582245417 OUFTI-1 1 41458U 16025C 20219.28420109 .00000967 00000-0 51819-4 0 9996 2 41458 98.1094 332.5092 0164010 42.3168 319.0575 15.07004635234982 e-st@r-II 1 41459U 16025D 20219.80938762 .00000840 00000-0 45951-4 0 9994 2 41459 98.1090 332.4354 0165328 42.7454 318.6499 15.06556043235024 AAUSAT4 1 41460U 16025E 20219.73595836 .00001712 00000-0 86524-4 0 9999 2 41460 98.1074 334.8690 0153796 31.2416 329.7858 15.08920555235223 LO-87 1 41557U 16033B 20219.80192041 .00001141 00000-0 44281-4 0 9994 2 41557 97.4041 309.7025 0011789 269.6272 90.3616 15.28117467233460 NuSat2 1 41558U 16033C 20219.76725796 .00001250 00000-0 45486-4 0 9998 2 41558 97.4100 312.1602 0010830 265.9089 94.0914 15.30113287233581 Lapan A3 1 41603U 16040E 20219.77592604 .00000052 00000-0 54965-5 0 9990 2 41603 97.3051 271.7324 0014224 32.9015 77.0611 15.19855922228786 Swayam 1 41607U 16040J 20219.41994247 .00001371 00000-0 58756-4 0 9990 2 41607 097.3141 277.6051 0013442 018.5028 341.6696 15.24359870229036 Pratham 1 41783U 16059A 20219.60281836 .00000037 00000-0 16278-4 0 9990 2 41783 98.0127 273.6425 0034179 156.2153 204.0638 14.63067154206219 AlSat 1N 1 41789U 16059G 20219.78196514 .00000056 00000-0 19549-4 0 9998 2 41789 98.0166 276.7526 0029151 142.8259 217.4961 14.64333609206394 ScatSat 1 41790U 16059H 20219.80863741 -.00000008 00000-0 88926-5 0 9990 2 41790 98.1575 258.5872 0006729 118.9352 241.2511 14.50924230204527 TY-1 1 41844U 16066D 20219.81427083 .00000813 00000-0 35456-4 0 9996 2 41844 97.4025 227.4193 0015437 160.5683 197.8754 15.24920330207938 Pegasus-1 1 41846U 16066F 20219.32651360 .00000249 00000-0 47006-4 0 9998 2 41846 098.6578 269.8925 0367933 084.7388 279.5662 14.37798262196134 CAS-2T 1 41847U 16066G 20219.58187083 .00000071 00000-0 20189-4 0 9999 2 41847 98.6501 270.5905 0366738 79.6121 284.6178 14.38082849196629 EO-88 1 42017U 17008BX 20219.43202280 .00001471 00000-0 58895-4 0 9997 2 42017 097.3571 286.2606 0007395 134.9514 225.2325 15.26616191193179 CAS-4B 1 42759U 17034B 20219.82929696 .00000195 00000-0 25346-4 0 9996 2 42759 43.0188 110.2680 0011747 342.4399 100.7662 15.09855331173581 CAS-4A 1 42761U 17034D 20219.76719188 .00000194 00000-0 25240-4 0 9997 2 42761 43.0185 109.8764 0011996 343.6951 78.9338 15.09934153173576 UCLSat 1 42765U 17036A 20219.20335993 .00001105 00000-0 48989-4 0 9998 2 42765 097.2971 272.1010 0010501 202.5505 157.5272 15.23617551174153 NIUSat 1 42766U 17036B 20219.11437145 .00000858 00000-0 40705-4 0 9993 2 42766 97.2964 269.3487 0014767 199.4847 160.5827 15.21793607173247 LituanicaSAT 2 1 42768U 17036D 20219.09595757 .00001896 00000-0 80463-4 0 9994 2 42768 97.3029 272.0489 0014152 194.0210 166.0637 15.24227736173404 Aalto 1 1 42775U 17036L 20219.29166321 .00000709 00000-0 34053-4 0 9991 2 42775 097.2945 269.8624 0013222 197.4883 162.5899 15.21903334173259 URSA MAIOR 1 42776U 17036M 20219.27489645 .00000775 00000-0 36763-4 0 9990 2 42776 097.2958 270.1523 0013049 197.1102 162.9697 15.22091812173266 Max Valier Sat 1 42778U 17036P 20219.28711915 .00000867 00000-0 40095-4 0 9996 2 42778 097.3013 271.5364 0011571 199.0009 161.0798 15.22693288173317 Pegasus 1 42784U 17036V 20219.30453595 .00001050 00000-0 47113-4 0 9996 2 42784 097.2976 271.8690 0011060 203.7735 156.2992 15.23303824173360 NUDATSat 1 42787U 17036Y 20219.58055226 .00001203 00000-0 51505-4 0 9998 2 42787 097.3025 273.6512 0009553 202.1954 157.8873 15.24652381173330 SUCHAI 1 1 42788U 17036Z 20219.57318820 .00001250 00000-0 54615-4 0 9997 2 42788 97.2984 272.7655 0010675 200.4045 159.6768 15.23871182173515 SKCUBE 1 42789U 17036AA 20219.29621849 .00001174 00000-0 51711-4 0 9994 2 42789 097.2979 272.3330 0010521 201.8021 158.2770 15.23705292173386 VZLUSAT 1 1 42790U 17036AB 20219.30748841 .00001615 00000-0 68199-4 0 9998 2 42790 097.3005 273.3789 0010114 198.5591 161.5279 15.24641662173449 VENTA 1 1 42791U 17036AC 20219.46789648 .00001111 00000-0 49136-4 0 9997 2 42791 097.2976 272.5398 0010188 201.5141 158.5669 15.23686022173403 Robusta 1B 1 42792U 17036AD 20219.24379285 .00001259 00000-0 54946-4 0 9994 2 42792 097.2981 272.5490 0010092 201.9646 158.1160 15.23898967173406 D-SAT 1 42794U 17036AF 20219.36285380 .00000318 00000-0 32898-4 0 9998 2 42794 097.4907 249.5422 0125656 197.7277 161.9539 14.91299358170134 TechnoSat 1 42829U 17042E 20219.61242394 .00000242 00000-0 29680-4 0 9991 2 42829 97.5130 99.0193 0015587 114.9016 245.3825 14.91117449166767 QIKCOM-1 1 42983U 98067NF 20219.79516575 .00004120 00000-0 52415-4 0 9993 2 42983 51.6387 51.6703 0003154 241.5987 118.4689 15.61900779158151 AO-91 1 43017U 17073E 20219.31916786 .00000275 00000-0 27386-4 0 9992 2 43017 97.7194 129.6304 0255400 247.7864 109.6076 14.78985881146530 EcAMSat 1 43019U 98067NG 20219.77543095 .00009163 00000-0 89773-4 0 9998 2 43019 51.6410 35.8736 0003246 231.6005 128.4700 15.66931328240686 PICSAT 1 43132U 18004X 20219.13427573 .00001221 00000-0 52561-4 0 9991 2 43132 097.4448 290.1675 0008158 232.5517 127.4978 15.24517590142620 AO-92 1 43137U 18004AC 20219.44516830 .00000925 00000-0 40889-4 0 9995 2 43137 097.4433 290.2634 0007745 233.6614 126.3909 15.24202483142664 TianYi 2 1 43155U 18008A 20219.78621179 .00000932 00000-0 58360-4 0 9990 2 43155 97.4447 287.5888 0016727 340.2726 114.2497 15.11695495140524 Zhou Enlai 1 43156U 18008B 20219.76567164 .00000398 00000-0 27388-4 0 9994 2 43156 97.4495 287.4143 0014092 340.5704 115.4907 15.11240919140473 TianYi 6 1 43158U 18008D 20219.67789640 .00001002 00000-0 64081-4 0 9995 2 43158 97.4438 286.3246 0013457 339.2583 177.9409 15.10776577140404 S-Net G 1 43186U 18014G 20219.45212005 -.00000346 00000-0 -25085-4 0 9998 2 43186 097.6903 126.4724 0012461 060.2013 300.0446 14.96831553137171 S-Net H 1 43187U 18014H 20219.51879996 -.00000347 00000-0 -25187-4 0 9998 2 43187 097.6901 126.5149 0012464 059.8840 300.3615 14.96831287137183 S-Net J 1 43188U 18014J 20219.71922260 -.00000350 00000-0 -25503-4 0 9990 2 43188 97.6903 126.7436 0012445 59.3636 300.8811 14.96831155137215 S-Net K 1 43189U 18014K 20219.45226829 -.00000349 00000-0 -25354-4 0 9992 2 43189 97.6900 126.4445 0012451 60.0869 300.1588 14.96830446135724 FMN 1 1 43192U 18015A 20219.84216021 .00002050 00000-0 83021-4 0 9997 2 43192 97.4491 349.1091 0013886 271.0287 241.6145 15.25767808139583 Shaonian Xing 1 43199U 18015H 20219.83105116 .00001429 00000-0 58502-4 0 9990 2 43199 97.4276 347.2364 0014918 282.3732 229.6946 15.25885569139647 UBAKUSAT 1 43467U 98067NQ 20219.55175844 .00034524 00000-0 20233-3 0 9998 2 43467 51.6361 23.4569 0001265 255.2797 104.8064 15.77966219128016 EnduroSat One 1 43551U 98067NZ 20219.71060943 .00078585 00000-0 29703-3 0 9999 2 43551 51.6328 16.8978 0004422 294.7050 65.3493 15.86995704118344 EQUISat 1 43552U 98067PA 20219.52759460 .00033509 00000-0 20624-3 0 9998 2 43552 051.6314 030.9069 0004020 286.0359 074.0198 15.76868391118101 UiTMSat 1 1 43589U 98067PD 20219.69789858 .00049099 00000-0 25094-3 0 9997 2 43589 51.6344 26.5903 0003521 304.3322 55.7346 15.80823461113910 Maya 1 1 43590U 98067PE 20219.50110831 .00050426 00000-0 25774-3 0 9999 2 43590 51.6298 27.4954 0003429 298.1695 61.8961 15.80810858113812 Bhutan 1 1 43591U 98067PF 20218.77251777 .00053078 00000-0 26938-3 0 9992 2 43591 51.6354 30.9943 0003520 300.5620 59.5035 15.80943458113708 SiriusSat 1 1 43595U 98067PG 20219.48980952 .00039648 00000-0 23521-3 0 9991 2 43595 051.6282 033.4748 0002045 270.5221 089.5545 15.77622059112915 SiriusSat 2 1 43596U 98067PH 20219.49177175 .00039112 00000-0 23317-3 0 9997 2 43596 051.6277 034.3136 0002153 268.4412 091.6342 15.77517668112906 Tanusha-3 1 43597U 98067PJ 20219.75185252 .00194190 26179-4 44964-3 0 9990 2 43597 51.6249 13.8907 0005919 300.5560 59.4864 15.96731839113191 SurfSat 1 43614U 18070B 20219.59369748 .00002734 00000-0 69850-4 0 9997 2 43614 93.0238 175.3219 0017073 135.4272 224.8359 15.39391986106199 CP-7 DAVE 1 43615U 18070C 20219.36997586 .00002605 00000-0 66887-4 0 9994 2 43615 93.0239 175.2165 0017207 135.8834 224.3796 15.39234076106159 ELFIN-B 1 43616U 18070D 20219.49523158 .00003502 00000-0 85695-4 0 9994 2 43616 093.0202 175.2277 0017592 136.5617 223.7027 15.40677268106222 ELFIN-A 1 43617U 18070E 20219.65215667 .00004073 00000-0 98974-4 0 9994 2 43617 93.0254 175.8466 0017123 132.8572 227.4124 15.40883321106256 STARS-Me Mother 1 43640U 98067PQ 20219.57384688 .00014151 00000-0 13595-3 0 9998 2 43640 051.6346 053.7700 0003670 218.6342 141.4392 15.66884243104587 CubeBel 1 1 43666U 18083E 20219.79091965 .00001071 00000-0 55389-4 0 9998 2 43666 97.4866 245.7548 0014945 178.8275 296.8632 15.18342140 98252 Changshagaoxin 1 43669U 18083H 20219.79651674 .00000702 00000-0 38509-4 0 9995 2 43669 97.4748 243.7983 0011056 170.0477 190.0978 15.17355293 98163 Ten-Koh 1 43677U 18084G 20219.57739804 .00000017 00000-0 76601-5 0 9998 2 43677 097.8883 336.5335 0015870 358.5984 001.5187 14.90303121096408 PO-101 1 43678U 18084H 20219.78550704 .00000194 00000-0 25071-4 0 9992 2 43678 97.8898 338.2021 0010385 18.7513 341.4052 14.91644726 96525 IRVINE 01 1 43693U 18088D 20219.49406702 .00002300 00000-0 95446-4 0 9993 2 43693 085.0334 043.8774 0020002 105.1174 255.2283 15.23057409096464 QO-100 1 43700U 18090A 20219.23414406 .00000130 00000-0 00000-0 0 9994 2 43700 000.0129 093.3194 0002060 069.4561 262.4907 01.00273852006202 Reaktor Hello World 1 43743U 18096AA 20219.67502286 .00001065 00000-0 42255-4 0 9999 2 43743 97.4190 293.2923 0016527 314.4683 45.5204 15.27506173 94069 MinXSS-2 1 43758U 18099A 20219.50708444 -.00000090 00000-0 -29314-5 0 9995 2 43758 097.7043 290.6259 0016238 027.4332 332.7742 14.95700894091435 AO-95 1 43770U 18099N 20219.43909766 -.00000079 00000-0 -19894-5 0 9990 2 43770 97.7035 289.9427 0015410 35.4896 324.7346 14.95018049 91382 RANGE-B 1 43772U 18099Q 20219.65366158 .00000039 00000-0 87850-5 0 9999 2 43772 97.7102 290.7205 0014570 22.6830 337.5032 14.95212504 91415 RANGE-A 1 43773U 18099R 20219.43060325 .00000069 00000-0 11540-4 0 9998 2 43773 097.6977 289.5368 0014118 023.9144 336.2730 14.94989756091376 MOVE-II 1 43780U 18099Y 20219.44101717 .00000034 00000-0 82444-5 0 9992 2 43780 97.7040 290.1891 0014276 33.5953 326.6170 14.95444153 91385 SNUSat 2 1 43782U 18099AA 20219.65911400 .00000101 00000-0 14400-4 0 9996 2 43782 97.7029 290.3887 0013133 22.6445 337.5352 14.95280569 91424 SnugLite 1 43784U 18099AC 20219.22271081 .00000523 00000-0 52484-4 0 9997 2 43784 97.6998 289.7720 0015827 31.1633 329.0523 14.95384722 91370 ITASat 1 1 43786U 18099AE 20219.42476381 .00000426 00000-0 43737-4 0 9994 2 43786 97.7052 290.3839 0015922 29.6362 330.5757 14.95353694 91404 EAGLET 1 1 43790U 18099AJ 20219.27028541 .00000401 00000-0 41079-4 0 9993 2 43790 097.7037 290.5089 0014187 034.6605 325.5538 14.95729927091091 ESEO 1 43792U 18099AL 20219.15065788 .00000503 00000-0 50418-4 0 9996 2 43792 97.7012 290.1901 0014069 32.4818 327.7266 14.95612371 91137 CSIM 1 43793U 18099AM 20219.51417514 -.00000009 00000-0 43690-5 0 9992 2 43793 097.7011 290.5626 0013538 028.3363 331.8592 14.96095173091172 Astrocast 0.1 1 43798U 18099AS 20219.45510209 -.00000157 00000-0 -89096-5 0 9990 2 43798 97.7034 290.7997 0012677 14.5877 345.5707 14.95889488 91422 JO-97 1 43803U 18099AX 20219.16567600 .00000153 00000-0 18989-4 0 9998 2 43803 97.7013 289.9365 0015902 30.5650 329.6494 14.95536251 91362 Suomi 100 1 43804U 18099AY 20219.16689953 .00000083 00000-0 12667-4 0 9994 2 43804 97.7010 289.9238 0015998 30.5969 329.6182 14.95523578 91370 Al Farabi 2 1 43805U 18099AZ 20219.73913193 .00000620 00000-0 60826-4 0 9991 2 43805 97.7015 290.5843 0015766 28.8925 331.3165 14.95647332 91467 PWSat 2 1 43814U 18099BJ 20219.18957187 .00026587 00000-0 14410-2 0 9997 2 43814 97.7924 301.0057 0003128 63.2780 296.8771 15.14562892 91245 CHOMPTT 1 43855U 18104G 20219.50285962 .00000927 00000-0 37532-4 0 9992 2 43855 85.0397 142.1049 0015709 222.2037 137.7997 15.23044197 91144 ISAT 1 43879U 18111D 20219.78804346 -.00000186 00000-0 -11326-4 0 9991 2 43879 97.6981 126.4019 0014666 76.5547 283.7308 14.96272277 86005 UWE-4 1 43880U 18111E 20219.49275156 .00000814 00000-0 76575-4 0 9995 2 43880 097.6994 126.4072 0014039 079.9454 280.3351 14.96520136087976 Sparrow 1 43881U 18111F 20219.54048574 .00000245 00000-0 26621-4 0 9999 2 43881 097.6994 126.5337 0013883 077.2634 283.0138 14.96559285087980 Lume 1 1 43908U 18111AJ 20219.50459979 .00001031 00000-0 43762-4 0 9999 2 43908 097.2603 117.9556 0020350 330.7394 029.2703 15.25122186089650 FO-98 1 43933U 19003B 20219.35193714 .00000722 00000-0 34253-4 0 9994 2 43933 97.2263 267.1704 0019482 68.4765 291.8546 15.22172724 86125 FO-99 1 43937U 19003F 20219.37896886 .00001252 00000-0 53356-4 0 9994 2 43937 097.2226 268.5803 0025320 051.0994 309.2497 15.24488075086246 Delphini 1 1 44030U 98067PW 20219.58526638 .00021238 00000-0 19358-3 0 9993 2 44030 51.6336 59.8482 0003032 269.9390 90.1259 15.67847538 86373 MYSat 1 1 44045U 18092F 20219.26328216 .00002472 00000-0 78139-4 0 9998 2 44045 51.6385 160.3957 0011550 141.5863 218.5945 15.36876778 82943 AstroCast 0.2 1 44083U 19018F 20219.59672289 .00000609 00000-0 29998-4 0 9996 2 44083 97.4176 279.9403 0013129 4.2014 355.9330 15.21664015 75007 AISTechSat 3 1 44103U 19018AB 20219.75714976 .00000888 00000-0 40413-4 0 9991 2 44103 97.4051 280.2988 0013880 17.9929 77.9012 15.23232490 75092 AISat 1 1 44104U 19018AC 20219.36351049 .00000835 00000-0 29000-4 0 9998 2 44104 097.4613 289.3447 0059016 037.0454 323.4839 15.31134384075441 Raavana-1 1 44329U 98067QE 20219.02259697 .00010845 00000-0 14447-3 0 9997 2 44329 051.6393 085.5102 0005631 181.5593 178.5383 15.58700626064734 Uguisu 1 44330U 98067QF 20219.03797327 .00010949 00000-0 14632-3 0 9998 2 44330 051.6371 085.5962 0005699 181.4111 178.6866 15.58604288064717 NepaliSat-1 1 44331U 98067QG 20219.01444951 .00010398 00000-0 13871-3 0 9991 2 44331 51.6371 85.4413 0005681 184.7149 175.3791 15.58716315 64723 Prox-1 1 44339U 19036A 20219.81480727 .00000820 00000-0 14480-3 0 9993 2 44339 23.9990 154.9824 0010355 343.8190 16.1970 14.53059124 59464 Oculus-ASR 1 44348U 19036K 20218.93643616 .00014976 00000-0 22175-3 0 9990 2 44348 028.5151 058.6030 0364728 115.8533 248.0132 15.03231974061254 Armadillo 1 44352U 19036P 20218.65866692 .00021070 00000-0 30909-3 0 9992 2 44352 28.5306 54.8320 0351105 121.0617 242.4926 15.06284357 61219 NO-104 1 44354U 19036R 20219.23256301 .00015132 00000-0 21995-3 0 9996 2 44354 28.5294 53.5305 0361385 122.8531 240.7381 15.04293522 61310 NO-103 1 44355U 19036S 20219.78012203 .00028599 00000-0 39505-3 0 9995 2 44355 28.5301 38.4457 0336707 147.3973 214.7887 15.10492660 61517 CP9 1 44360U 19036X 20219.47380655 .00043197 -55067-5 48365-3 0 9990 2 44360 028.5133 022.3523 0314511 174.4677 185.9507 15.18682892061539 Move-IIb 1 44398U 19038N 20219.50586860 .00001289 00000-0 77578-4 0 9999 2 44398 097.5393 180.1107 0024073 318.5788 041.3617 15.12414033060147 SONATE 1 44400U 19038Q 20219.48696035 .00000481 00000-0 31691-4 0 9995 2 44400 097.5433 180.1037 0024097 316.9078 043.0266 15.11997862060131 BeeSat 9 1 44412U 19038AC 20219.62187687 .00000829 00000-0 51353-4 0 9995 2 44412 97.5418 180.3394 0021718 322.4763 37.4951 15.12366537 59850 JAISAT-1 1 44419U 19038F 20219.75843082 .00000834 00000-0 51006-4 0 9995 2 44419 97.5420 180.7768 0020548 321.1864 38.7890 15.12850381 60209 LightSail-2 1 44420U 19036AC 20219.22169059 .00003548 00000-0 74225-3 0 9994 2 44420 024.0065 153.2474 0009983 313.5866 046.3797 14.56047139057581 Taurus 1 1 44530U 19059C 20219.70930567 .00001179 00000-0 34653-3 0 9993 2 44530 98.5691 301.2785 0015057 17.8552 342.3182 14.45554263 47607 MO-106 1 44830U 19084G 20219.70508501 .00086604 44922-5 37185-3 0 9998 2 44830 96.9648 89.5138 0020501 48.7914 311.5120 15.84811860 38396 TRSI-Sat 1 44831U 19084H 20219.09235348 .00093776 00000-0 40823-3 0 9992 2 44831 96.9647 88.8734 0021101 49.9171 310.3946 15.84176210 38302 MO-105 1 44832U 19084J 20219.32830049 .00115861 66126-5 44121-3 0 9999 2 44832 96.9649 89.4388 0018316 48.9896 311.2957 15.87318529 38355 Duchifat 3 1 44854U 19089C 20219.84975314 .00000300 00000-0 30705-4 0 9999 2 44854 36.9671 160.5113 0008808 94.5603 265.5587 14.99095472 35867 OPS-SAT 1 44878U 19092F 20219.48302181 .00000941 00000-0 53026-4 0 9997 2 44878 097.4699 041.9092 0014113 176.6297 183.5033 15.15558155035114 TO-108 1 44881U 19093C 20219.71382053 .00000000 00000-0 68820-5 0 9999 2 44881 97.9565 295.4207 0013843 230.8817 129.1176 14.81416262 34138 FloripaSat 1 1 44885U 19093G 20219.82566545 .00000195 00000-0 31318-4 0 9991 2 44885 97.9566 295.7240 0013448 241.4042 118.5805 14.82056147 34169 RS-44 1 44909U 19096E 20219.39595508 .00000027 00000-0 56871-4 0 9999 2 44909 082.5242 322.1292 0218498 109.6952 252.7864 12.79707918028573 SwampSat-2 1 45115U 19071E 20219.37966071 .00008860 00000-0 25865-3 0 9998 2 45115 51.6418 120.5767 0011531 238.6103 121.3752 15.36044917 28792 HO-107 1 45119U 19071J 20219.31149751 .00001274 00000-0 49938-4 0 9994 2 45119 051.6438 122.3450 0011710 232.1380 127.8543 15.33704648028770 Phoenix 1 45258U 98067RB 20219.70202269 .00003859 00000-0 72508-4 0 9997 2 45258 51.6412 96.7922 0006317 163.2063 196.9137 15.51205139 26273 AztechSat-1 1 45261U 98067RE 20219.56218719 .00007828 00000-0 13301-3 0 9997 2 45261 051.6410 096.6162 0007722 180.1910 179.9078 15.52450725026291 QARMAN 1 45263U 98067RG 20219.74879691 .00006540 00000-0 11538-3 0 9991 2 45263 51.6413 96.3596 0007294 177.4742 182.6286 15.51704847 26344 Quetzal 1 1 45598U 98067RL 20219.07728823 .00006720 00000-0 12214-3 0 9990 2 45598 51.6424 100.8741 0002215 267.6992 92.3743 15.50807205 15497 BY70-2 1 45857U 20042B 20219.81415955 .00000662 00000-0 10302-3 0 9992 2 45857 98.0127 292.5567 0012396 140.5311 219.6797 14.76238651 5122 /EX
